Regional Weather Roundup
Issued by NWS

Home | Current Version | Previous Version | Text Only | Print | Product List | Glossary Off
Versions: 1 2 3 4 5 6 7 8 9 10 11 12 13 14 15 16 17 18 19 20 21 22 23 24 25 26 27 28 29 30 31 32 33 34 35 36 37 38 39 40 41 42 43 44 45 46 47 48 49 50

000
ASUS43 KBIS 220710
RWRND

NORTH DAKOTA REGIONAL WEATHER ROUNDUP
NATIONAL WEATHER SERVICE BISMARCK ND
200 AM CDT FRI SEP 22 2017

NOTE: "FAIR" INDICATES FEW OR NO CLOUDS BELOW 12,000 FEET WITH NO
SIGNIFICANT WEATHER AND/OR OBSTRUCTIONS TO VISIBILITY.


NDZ001>003-009>011-017-220800-
NORTHWEST NORTH DAKOTA

CITY           SKY/WX    TMP DP  RH WIND       PRES   REMARKS
WILLISTON      MOCLDY    50  38  63 N14       29.90F
MINOT          MOCLDY    51  39  63 NW14      29.87F
MINOT AFB      CLOUDY    50  39  65 N14       29.88S
$$

NDZ018>021-031>035-040>046-220800-
SOUTHWEST NORTH DAKOTA

CITY           SKY/WX    TMP DP  RH WIND       PRES   REMARKS
BISMARCK       CLEAR     56  45  66 N13       29.79F
DICKINSON      PTCLDY    49  37  63 N12G21    29.83F
GARRISON         N/A     51  39  63 N12G20    29.83F
HETTINGER ARPT CLOUDY    51  37  58 N15       29.83R
$$

NDZ004>008-012>016-024-026-027-054-220800-
NORTHEAST NORTH DAKOTA

CITY           SKY/WX    TMP DP  RH WIND       PRES   REMARKS
GRAND FORKS    PTCLDY    60  58  92 N7        29.73S
GRND FRKS AFB  CLEAR     58  57  96 NE8       29.73F
DEVILS LAKE    CLEAR     55  51  86 N14       29.82R
$$

NDZ022-023-025-028>030-036>039-047>053-220800-
SOUTHEAST NORTH DAKOTA

CITY           SKY/WX    TMP DP  RH WIND       PRES   REMARKS
FARGO          CLEAR     72  69  90 SE8       29.69F
JAMESTOWN      CLEAR     57  52  83 N9        29.72F
$$




USA.gov is the U.S. government's official web portal to all federal, state and local government web resources and services.